Вернуться в каталог

COSMOS 1823 DEB

АктивенLEO
NORAD 18729·DEBRIS·🇷🇺 Russia

Запущен Feb 20, 1987 с Plesetsk Cosmodrome

Loading…

Ближайшие Пролёты (ближайшие 24 часа)

TLE

СвежийSource: Space-Track

Эпоха: Sep 14, 2026, 11:33 UTC

1 18729U 87020G   26257.48127459  .00000005  00000-0  17995-3 0  9995
2 18729  73.8120  70.3781 0129762  90.3410 298.7743 12.23663488729922

Отслеживайте COSMOS 1823 DEB в реальном времени с AllMySat

Download on the App Store